Regional Weather Roundup
Issued by NWS Pendleton, OR

Home | Current Version | Previous Version | Text Only | Print | Product List | Glossary On
Versions: 1 2 3 4 5 6 7 8 9 10 11 12 13 14 15 16 17 18 19 20 21 22 23 24 25 26 27 28 29 30 31 32 33 34 35 36 37 38 39 40 41 42 43 44 45 46 47 48 49 50
000
ASUS46 KPDT 231510
RWRPDT
PENDLETON REGIONAL WEATHER ROUNDUP
NATIONAL WEATHER SERVICE PENDLETON OREGON
800 AM PDT SUN APR 23 2017

NOTE: FAIR INDICATES FEW OR NO CLOUDS BELOW 12,000 FEET WITH NO
SIGNIFICANT WEATHER AND/OR OBSTRUCTIONS TO VISIBILITY.

# INDICATES UNOFFICIAL STATION AND DATA

WAZ520-231610-
EAST SLOPES OF WASHINGTON CASCADES

CITY            SKY/WX      TMP DP  RH  WIND    PRES   REMARKS
#CLE ELUM HS    N/A         39  37  92  CALM    29.85S
#CLE ELUM LAKE  N/A         39  36  89  CALM    29.85R
#GLENWOOD       N/A         42  40  93  CALM    29.90S
#MANASTASH CYN  N/A         36  32  85  CALM    29.85F
#NELSON 3SW     N/A         36  35  96  CALM    30.09S
#NILE           N/A         36  35  96  CALM    29.16S
#TEANAWAY 4NE   N/A         36  35  96  CALM    N/A
#TROUT LAKE 1NE N/A         40  39  96  CALM    29.93S
#TROUT LAKE 1E  N/A         39  38  96  CALM    29.94S
$$

WAZ521-231610-
SIMCOE HIGHLANDS

CITY            SKY/WX      TMP DP  RH  WIND    PRES   REMARKS
#BICKLETON HS   N/A         45  35  68  SW20    29.91F WCI 37
#CENTERVILLE 1SWN/A         45  40  82  CALM    29.88S
#GOLDENDALE 1NE N/A         44  37  76  CALM    N/A
#GOLDENDALE 4W  N/A         49  25  39  W1      29.96R
#GOODNOE HILLS  N/A         50  41  71  NW10    N/A
#LYLE 6NE       N/A         45  42  89  SW2     29.89R
#PITT 4SE       N/A         43  39  86  W3      29.94R
$$

WAZ026-231610-
KITTITAS VALLEY

CITY            SKY/WX      TMP DP  RH  WIND    PRES   REMARKS
ELLENSBURG AP   CLOUDY      46  38  73  W5      29.88R
#ELLENSBURG CWU N/A         43  38  82  CALM    29.82R
#ELLENSBURG 3NE N/A         43  38  82  CALM    27.96S
#ELLENSBURG 1E  N/A         40  N/A N/A CALM    N/A
#ELLENSBURG 13S N/A         43  38  82  CALM    N/A
#KITTITAS 4N    N/A         43  37  79  CALM    29.89S
#KITTITAS 3S    N/A         42  39  89  CALM    29.87S
#THORP 6N       N/A         38  35  89  N5      29.89S
$$

WAZ027-231610-
YAKIMA VALLEY

CITY            SKY/WX      TMP DP  RH  WIND    PRES   REMARKS
YAKIMA AIRPORT  CLOUDY      49  40  71  CALM    29.90R
YAKIMA-VAGABOND MOCLDY      44  38  79  SW3     29.87S
#DONALD 2NE     N/A         53  22  29  W6      28.75R
#GRANDVIEW      N/A         48  40  74  CALM    29.91S
#MABTON         N/A         48  44  86  CALM    29.90R
#MOXEE 2E       N/A         51   0  12  CALM    29.86F
#NACHES 2SW     N/A         45  38  76  SW2     29.88S
#TERRACE HTS    N/A         47  39  74  CALM    29.85S
#TOPPENISH      N/A         48  41  77  CALM    29.81R
#WEST VALLEY    N/A         46  38  73  CALM    29.87S
#W YAKIMA       N/A         47  39  74  CALM    29.89R
#WHITE SWAN 5E  N/A         49  41  74  CALM    29.89S
#WILEY CITY 3W  N/A         45  35  68  CALM    29.86R
$$

WAZ028-231610-
LOWER COLUMBIA BASIN...WASHINGTON

CITY            SKY/WX      TMP DP  RH  WIND    PRES   REMARKS
PASCO           MOCLDY      53  40  61  MISG    29.91S
PROSSER AWOS    N/A         52  43  71  CALM    29.93S
RICHLAND AWOS   PTCLDY      55  43  64  S8      29.90S
#BENTON CITY    N/A         51  41  68  CALM    29.80F
#CONNELL 5N     N/A         50  44  80  CALM    29.88S
#CONNELL 5NW    N/A         48  43  83  S2      29.83S
#ELTOPIA 6NW    N/A         49  44  83  CALM    28.86F
#KAHLOTUS       N/A         48  42  80  W5      29.87F
#KENNEWICK 3S   N/A         50  42  74  SW6     29.89S
#PATERSON       N/A         50  43  77  NW8     29.89S
#SAGEMOOR 2W    N/A         50  43  77  S5      29.75F
#TOUCHET 2S     N/A         52  44  74  SW5     29.89S
$$

WAZ029-231610-
FOOTHILLS OF THE BLUES...WASHINGTON

CITY            SKY/WX      TMP DP  RH  WIND    PRES   REMARKS
WALLA WALLA AP  CLOUDY      52  43  71  S8      29.91S
#CLYDE 6NW      N/A         48  42  80  S10     29.88F
#DAYTON SCHOOL  N/A         47  36  65  CALM    29.93S
#LOWDEN 2SE     N/A         52  45  77  W2      29.88S
#PLEASANT VIEW 1N/A         47  43  86  S8      29.91F
#PRESCOTT       N/A         49  45  86  CALM    29.88S
#WHITMAN COLLEGEN/A         51  43  74  S3      29.95S
#WAITSBURG 5S   N/A         46  43  89  S3      29.98F
#WAITSBURG 8N   N/A         63  N/A N/A S12     29.90S
#WALLA WALLA 5E N/A         51  42  71  S7      N/A
#WHITMAN MISSIONN/A         51  45  80  S3      29.92S
$$

WAZ030-231610-
BLUE MOUNTAINS...WASHINGTON

CITY            SKY/WX      TMP DP  RH  WIND    PRES   REMARKS
#DIXIE 5SE      N/A         43  38  82  S8      29.83R
$$

ORZ009-041-WAZ024-231610-
COLUMBIA RIVER GORGE

CITY            SKY/WX      TMP DP  RH  WIND    PRES   REMARKS
HOOD RIVER AP   CLOUDY      48  43  83  CALM    29.94S
THE DALLES AP   MOCLDY      54  45  71  N5      29.94R
#ARLINGTON AIRPON/A         49  43  80  W1      29.92S
#CELILO DOT     N/A         52  41  66  SW1     N/A
#LYLE           N/A         49  44  83  N2      29.95S
#MOSIER 1S      N/A         48  39  71  CALM    29.91S
#MURDOCK        N/A         51  45  80  NW3     29.90S
#RUFUS DOT      N/A         51  43  74  W6      N/A
#SMITHVILLE     N/A         50  45  83  CALM    29.89R

$$

ORZ510-231610-
NORTH CENTRAL OREGON

CITY            SKY/WX      TMP DP  RH  WIND    PRES   REMARKS
#ANTELOPE       N/A         44  38  79  NE2     29.77S
#CHENOWITH 1W   N/A         45  40  82  NW9     N/A
#COW CYN RST AREN/A         42  38  86  E2      N/A
#DUFUR          N/A         46  42  86  CALM    29.89S
#DUFUR 9E       N/A         43  39  86  CALM    29.96S
#GRASS VALLEY 1SN/A         45  40  82  SW6     30.06S
#KENT DOT       N/A         42  33  70  N3      N/A
#SHANIKO 5WSW   N/A         41  31  67  CALM    N/A
#SHANIKO 4NW    N/A         41  35  79  S3      29.90S
#TYGH VALLEY 2NEN/A         45  41  86  CALM    29.92R
#WAPANITIA AIRPON/A         46  38  73  W5      29.93R
#WASCO 5NE      N/A         47  42  83  SW2     29.91R
$$

ORZ511-231610-
CENTRAL OREGON

CITY            SKY/WX      TMP DP  RH  WIND    PRES   REMARKS
BEND AIRPORT    PTCLDY      43  34  70  SW5     29.92S
MADRAS AIRPORT  PTCLDY      45  36  70  S7      29.94R
PRINEVILLE AP   MOCLDY      43  37  79  S5      29.91F
REDMOND AIRPORT PTCLDY      45  34  65  S3      29.92R
#ASHWOOD SCHOOL N/A         45  39  79  S5      29.89S
#BEND 1SW       N/A         41  34  76  SW2     N/A
#BEND-AWBREY    N/A         41  34  76  SW3     29.88R
#BEND-KIM LN    N/A         42  38  86  E1      29.85S
#CULVER         N/A         44  36  73  S3      29.84R
#CULVER 8W      N/A         48  35  60  CALM    29.93R
#LAKE BILLY CHINN/A         45  N/A N/A CALM    30.02S
#POWELL BUTTE 3EN/A         39  35  85  SE2     N/A
#POWELL BUTTE   N/A         46  35  65  N2      29.88S
#PRINEVILLE     N/A         43  38  82  CALM    29.98S
#PRINEVILLE 3N  N/A         43  39  86  SE2     29.89R
#WARM SPRINGS   N/A         46  40  79  CALM    29.89S

$$


ORZ509-231610-
EAST SLOPES OF OREGON CASCADES

CITY            SKY/WX      TMP DP  RH  WIND    PRES   REMARKS
SISTERS AWOS    N/A         39  36  89  CALM    29.90S
#BLUE BOX PASS  N/A         35  N/A N/A E2      N/A
#CAMP SHERMAN   N/A         41  36  82  CALM    29.99R
#LA PINE 4SW    N/A         37  35  92  CALM    29.94S
#LA PINE 4NW    N/A         37  32  82  CALM    29.96R
#LAVA BUTTE DOT N/A         35  33  92  CALM    N/A
#SISTERS 3N     N/A         44  35  70  W2      29.94S
#SUNRIVER       N/A         39  35  85  S2      29.92R
#TUMALO 3W      N/A         41  36  82  E3      29.78S
#WANOGA BUTTE D N/A         31  27  85  W3      N/A

$$

ORZ044-231610-
LOWER COLUMBIA BASIN...OREGON

CITY            SKY/WX      TMP DP  RH  WIND    PRES   REMARKS
HERMISTON       CLOUDY      53  43  69  SW7     29.91F
#BOARDMAN SCHOOLN/A         55  42  61  S7      29.91S
#BOARDMAN 8SW   N/A         54  45  71  SW6     29.91S
#ECHO 8SW       N/A         52  41  66  SW5     29.92F
#I-84 EX 198 DOTN/A         49  43  80  NE8     N/A
#IONE SCHOOL    N/A         51  31  46  S1      29.92F
$$

ORZ507-231610-
NORTHERN FOOTHILLS OF THE BLUES

CITY            SKY/WX      TMP DP  RH  WIND    PRES   REMARKS
PENDLETON AIRPT CLOUDY      49  44  83  S7      29.91S
#ADAMS 3WNW     N/A         46  43  89  SW3     29.90S
#ATHENA         N/A         47  43  86  CALM    29.92S
#CAYUSE         N/A         49  41  74  S3      29.90S
#HELIX SCHOOL   N/A         46  43  89  S6      29.90S
#HELIX 3N       N/A         45  42  89  S9      29.89S
#HOLDMAN 5SE    N/A         48  45  89  CALM    29.91S
#HOLDMAN 6E     N/A         46  44  93  SE5     29.71S
#M-F FERNDALE   N/A         51  42  71  CALM    29.89S
#M-F GROVE ELEM N/A         50  40  68  CALM    29.89F
#M-FREEWATER 5SEN/A         48  44  86  CALM    29.91S
#PENDLETON DNTN N/A         50  39  66  S3      29.92S
#PDT AQUATIC CTRN/A         48  40  74  CALM    29.93S
#PDT SUNRIDGE   N/A         48  43  83  S3      29.94S
#PENDLETON 7NW  N/A         48  42  80  CALM    32.29S
#PILOT ROCK 1S  N/A         46  40  79  S2      29.93S
#PILOT ROCK     N/A         48  42  80  SW1     29.94S
#TUTUILLA       N/A         47  42  83  S2      29.92S
#UMAPINE 2E     N/A         52  45  77  SW1     29.89S
#WESTON SCHOOL  N/A         47  38  71  W5      29.92S

$$

ORZ508-231610-
SOUTHERN FOOTHILLS OF THE BLUES

CITY            SKY/WX      TMP DP  RH  WIND    PRES   REMARKS
LEXINGTON       MOCLDY      50  41  71  E6      29.94F
#AJAX           N/A         44  33  65  SE2     30.07R
#CONDON SCHOOL  N/A          0  -78  1  CALM    29.87S
#CONDON 5W      N/A         41  35  79  NW3     29.88S
#HEPPNER EOC    N/A         46  40  79  CALM    29.83F
#HEPPNER 4NE    N/A         44  37  76  SE1     29.88F
#LEXINGTON 2SE  N/A         49  42  77  S5      29.89F
#MIKKALO        N/A         48  38  68  CALM    30.01F
#OLEX 4N        N/A         49  42  77  SW6     29.91S
#RUGGS 5NE      N/A         46  40  79  CALM    30.07S
#RUGGS 2SW      N/A         44  39  82  E1      29.91F

$$

ORZ502-503-231610-
BLUE MOUNTAINS

CITY            SKY/WX      TMP DP  RH  WIND    PRES   REMARKS
MEACHAM         LGT RAIN    40  35  82  CALM    29.91S
#BATTLE MTN DOT N/A         36  35  96  S5      N/A
#GREENHORN 9SW  N/A         42  39  89  CALM    26.11R
#HARDMAN 10S    N/A         39  36  89  CALM    29.98F
#LADD CYN SMT   N/A         41  36  82  W6      N/A
#LADD CREEK ODOTN/A         43  28  55  CALM    N/A
#LONG CREEK HS  N/A         41  40  96  CALM    N/A
#N POWDER DOT   N/A         44  39  82  N8      N/A
#PIKES PEAK     N/A         41  35  79  N15     27.99S WCI 33
#TOLLGATE       N/A         33  32  96  SW1     29.77S
#TROY SCHOOL    N/A         47  45  93  CALM    29.75F
#UKIAH          N/A         39  36  89  NW1     29.81S
#WESTON 4E      N/A         41  38  89  CALM    29.85S
$$

ORZ505-231610-
JOHN DAY BASIN

CITY            SKY/WX      TMP DP  RH  WIND    PRES   REMARKS
JOHN DAY        MOCLDY      46  39  76  CALM    29.91S
#JOHN DAY KJDY  N/A         48  N/A N/A CALM    28.69R
#ANTELOPE 9ESE  N/A         46  40  79  CALM    N/A
#DAYVILLE SCHOOLN/A         50  37  61  W2      29.88S
#MITCHELL       N/A         44  40  86  CALM    30.08S
#MITCHELL 8NW   N/A         41  35  79  CALM    29.90S
#MONUMENT HS    N/A         45  40  82  CALM    29.89S
#MT. VERNON 5SE N/A         42  37  82  W1      29.85S
#SPRAY SCHOOL   N/A         52  N/A N/A CALM    N/A
$$

ORZ506-231610-
OCHOCO AND JOHN DAY HIGHLANDS

CITY            SKY/WX      TMP DP  RH  WIND    PRES   REMARKS
#HORSE RIDGE DO N/A         35  29  78  CALM    N/A
#PAULINA SCHOOL N/A         43  34  70  SW6     N/A
#PINE MTN OBS   N/A         33  28  82  CALM    N/A
#SENECA 9NW     N/A         39  37  92  CALM    29.82S
$$

ORZ049-231610-
GRANDE RONDE VALLEY

CITY            SKY/WX      TMP DP  RH  WIND    PRES   REMARKS
LA GRANDE       CLOUDY      45  37  73  NW8     29.91S
#COVE SCHOOL    N/A         44  40  86  CALM    29.93S
#COVE 6NW       N/A         45  40  82  CALM    29.89F
#ELGIN 3N       N/A         45  39  79  CALM    29.88F
#ELGIN 1E       N/A         45  40  82  CALM    N/A
#IMBLER SCHOOL  N/A         44  38  79  CALM    29.88S
#ISLAND CITY 4N N/A         47  46  96  CALM    29.94S
#UNION 1S       N/A         45  40  82  W1      29.89R
$$

ORZ050-231610-
WALLOWA COUNTY

CITY            SKY/WX      TMP DP  RH  WIND    PRES   REMARKS
JOSEPH AIRPORT  CLOUDY      41  37  86  CALM    29.91S
#IMNAHA SCHOOL  N/A         47  44  89  N3      29.92S
#JOSEPH 3N      N/A         39  34  82  CALM    29.94S
#JOSEPH 3W      N/A         38  38  100 CALM    29.75S
#LOSTINE        N/A         41  40  96  CALM    29.69F
#MT HOWARD 8000 N/A         28  26  92  CALM    29.83F
#PROMISE 1S     N/A         40  38  92  CALM    29.99R
#WALLOWA SCHOOL N/A         42  41  96  CALM    29.89S



$$



USA.gov is the U.S. government's official web portal to all federal, state and local government web resources and services.